This is the latest recevied weather packets stored in our database for station/object KD5BIG-13. If no packets are shown the sender has not sent any weather packets the latest 10 day(s).
| Time | Temp. | Humidity | Pressure | Rain* | Wind** | Luminosity | Snow |
|---|---|---|---|---|---|---|---|
| 1778020531 | 25.56° C | 77% | 1013.3 hPa | 0 mm | - | 168 W/m² | - |
| 1778020227 | 25.56° C | 77% | 1013.2 hPa | 0 mm | - | 137 W/m² | - |
| 1778019924 | 25.56° C | 78% | 1013.3 hPa | 0 mm | - | 166 W/m² | - |
| 1778019620 | 25.56° C | 77% | 1013.3 hPa | 0 mm | - | 167 W/m² | - |
| 1778019317 | 25.56° C | 76% | 1013.4 hPa | 0 mm | - | 186 W/m² | - |
| 1778019014 | 25.56° C | 77% | 1013.3 hPa | 0 mm | - | 154 W/m² | - |
| 1778018711 | 25.56° C | 76% | 1013.5 hPa | 0 mm | - | 63 W/m² | - |
| 1778018409 | 25.56° C | 77% | 1013.7 hPa | 0 mm | - | 94 W/m² | - |
| 1778018107 | 25.56° C | 77% | 1013.6 hPa | 0 mm | - | 155 W/m² | - |
| 1778017804 | 25.56° C | 76% | 1013.6 hPa | 0 mm | - | 221 W/m² | - |
| 1778017502 | 25.56° C | 76% | 1013.8 hPa | 0 mm | - | 227 W/m² | - |
| 1778017198 | 25.56° C | 77% | 1013.8 hPa | 0 mm | - | 151 W/m² | - |
| 1778016897 | 25.56° C | 77% | 1013.8 hPa | 0 mm | - | 151 W/m² | - |
| 1778016592 | 25.56° C | 76% | 1013.9 hPa | 0 mm | - | 202 W/m² | - |
| 1778016289 | 25.56° C | 76% | 1013.8 hPa | 0 mm | - | 164 W/m² | - |
| 1778015986 | 25.56° C | 77% | 1013.6 hPa | 0 mm | - | 167 W/m² | - |
| 1778015683 | 25.56° C | 76% | 1013.9 hPa | 0 mm | - | 167 W/m² | - |
| 1778015379 | 25.56° C | 76% | 1014 hPa | 0 mm | - | 105 W/m² | - |
| 1778015077 | 25.56° C | 77% | 1014.1 hPa | 0 mm | - | 197 W/m² | - |
| 1778014773 | 25° C | 77% | 1014.2 hPa | 0 mm | - | 215 W/m² | - |
| 1778014472 | 25° C | 76% | 1014.2 hPa | 0 mm | - | 95 W/m² | - |
| 1778014168 | 25° C | 76% | 1014.1 hPa | 0 mm | - | 108 W/m² | - |
| 1778013866 | 25.56° C | 76% | 1014.1 hPa | 0 mm | - | 136 W/m² | - |
| 1778013563 | 25.56° C | 76% | 1014.2 hPa | 0 mm | - | 112 W/m² | - |
| 1778013259 | 25.56° C | 75% | 1014.4 hPa | 0 mm | - | 142 W/m² | - |
* Rain latest hour (hover to see other rain measurements)
** Current wind speed in m/s (hover to see current wind gust speed)